Change the Weather History Date:

Wednesday, July 30, 2014

  Actual Average Record
Temperature  
Mean Temperature 72 °F 82 °F  
Max Temperature 85 °F 92 °F 104 °F (1930)
Min Temperature 59 °F 72 °F 59 °F (2014)
Degree Days  
Heating Degree Days 0 0  
Month to date heating degree days 0 0  
Since 1 June heating degree days 0 0  
Since 1 July heating degree days 0 0  
Cooling Degree Days 7 17  
Month to date cooling degree days 428 503  
Year to date cooling degree days 1202 1283  
Since 1 June cooling degree days 871 925  
Growing Degree Days 22 (Base 50)    
Moisture  
Dew Point 58 °F    
Average Humidity 64    
Maximum Humidity 90    
Minimum Humidity 37    
Precipitation  
Precipitation 0.00 in 0.15 in 2.07 in (2002)
Month to date precipitation 2.14 4.66  
Year to date precipitation 40.17 32.89  
Sea Level Pressure  
Sea Level Pressure 30.07 in    
Wind  
Wind Speed 4 mph (NE)    
Max Wind Speed 12 mph    
Max Gust Speed 16 mph    
Visibility 10 miles    
Events      
T = Trace of Precipitation, MM = Missing Value Source: NWS Daily Summary

Daily Weather History Graph

Daily Weather History Graph

Search for Another Location

Airport or City:

Trip Planner

Search our weather history database for the weather conditions in past years. The results will help you decide how hot, cold, wet, or windy it might be!

Date:

Astronomy

Jul. 30, 2014 Rise Set
Actual Time 6:13 AM CDT 7:59 PM CDT
Civil Twilight 5:46 AM CDT 8:26 PM CDT
Nautical Twilight 5:14 AM CDT 8:58 PM CDT
Astronomical Twilight 4:40 AM CDT 9:32 PM CDT
Moon 9:30 AM CDT (7/30) 9:58 PM CDT (7/30)
Length of Visible Light 14h 39m
Length of Day
13h 45m
Waxing Crescent, 12% of the Moon is Illuminated
Jul 30
Waxing Crescent
Aug 3
First Quarter
Aug 10
Full
Aug 17
Last Quarter
Aug 25
New

Hourly Weather History & Observations

Time (CDT) Temp. Heat Index Dew Point Humidity Pressure Visibility Wind Dir Wind Speed Gust Speed Precip Events Conditions
12:54 AM 69.1 °F - 59.0 °F 70% 30.07 in 10.0 mi NE 3.5 mph - N/A   Clear
1:54 AM 68.0 °F - 57.9 °F 70% 30.06 in 10.0 mi ENE 4.6 mph - N/A   Clear
2:54 AM 63.0 °F - 59.0 °F 87% 30.07 in 10.0 mi Calm Calm - N/A   Clear
3:54 AM 61.0 °F - 57.9 °F 90% 30.07 in 10.0 mi Calm Calm - N/A   Clear
4:54 AM 61.0 °F - 57.9 °F 90% 30.07 in 10.0 mi Calm Calm - N/A   Clear
5:54 AM 61.0 °F - 57.9 °F 90% 30.09 in 10.0 mi Calm Calm - N/A   Clear
6:54 AM 62.1 °F - 59.0 °F 90% 30.09 in 10.0 mi Calm Calm - N/A   Partly Cloudy
7:54 AM 69.1 °F - 60.1 °F 73% 30.11 in 10.0 mi NE 3.5 mph - N/A   Partly Cloudy
8:54 AM 73.0 °F - 57.9 °F 59% 30.12 in 10.0 mi ENE 5.8 mph - N/A   Partly Cloudy
9:54 AM 75.9 °F - 57.0 °F 52% 30.11 in 10.0 mi East 5.8 mph - N/A   Partly Cloudy
10:54 AM 79.0 °F - 55.0 °F 44% 30.11 in 10.0 mi East 5.8 mph - N/A   Clear
11:54 AM 79.0 °F - 55.0 °F 44% 30.10 in 10.0 mi SSE 3.5 mph - N/A   Clear
12:54 PM 82.9 °F 82.1 °F 55.9 °F 39% 30.08 in 10.0 mi Variable 4.6 mph - N/A   Clear
1:54 PM 82.9 °F 82.0 °F 55.0 °F 38% 30.06 in 10.0 mi Variable 4.6 mph - N/A   Partly Cloudy
2:54 PM 82.9 °F 81.8 °F 53.1 °F 36% 30.06 in 10.0 mi Calm Calm - N/A   Partly Cloudy
3:54 PM 84.9 °F 83.9 °F 57.0 °F 38% 30.04 in 10.0 mi NNE 6.9 mph - N/A   Partly Cloudy
4:54 PM 84.9 °F 83.7 °F 55.9 °F 37% 30.04 in 10.0 mi North 9.2 mph - N/A   Scattered Clouds
5:54 PM 84.0 °F 83.3 °F 57.0 °F 40% 30.03 in 10.0 mi North 8.1 mph - N/A   Mostly Cloudy
6:54 PM 81.0 °F 81.3 °F 59.0 °F 47% 30.03 in 10.0 mi North 6.9 mph - N/A   Mostly Cloudy
7:54 PM 75.9 °F - 61.0 °F 60% 30.04 in 10.0 mi North 5.8 mph - N/A   Mostly Cloudy
8:54 PM 73.9 °F - 62.1 °F 66% 30.03 in 10.0 mi NE 3.5 mph - N/A   Mostly Cloudy
9:54 PM 75.2 °F - 59.0 °F 57% 30.04 in 10.0 mi ENE 4.6 mph - N/A   Mostly Cloudy
10:54 PM 73.9 °F - 60.1 °F 62% 30.04 in 10.0 mi ENE 3.5 mph - N/A   Mostly Cloudy
11:54 PM 72.0 °F - 60.1 °F 66% 30.05 in 10.0 mi NE 3.5 mph - N/A   Clear